Overview Statistics Trail Chart Weather Telemetry Raw packets
 

This is the latest recevied weather packets stored in our database for station/object N3LF. If no packets are shown the sender has not sent any weather packets the latest 10 day(s).

<< 1 2 3 4 5 6 7 >>
Time Temp. Humidity Pressure Rain* Wind** Luminosity Snow
1788611065 23.33° C 99% 1017.4 hPa 0 mm - 39 W/m² -
1788610761 22.78° C 99% 1017.3 hPa 0 mm - 36 W/m² -
1788610456 22.78° C 99% 1017.2 hPa 0 mm - 36 W/m² -
1788610155 22.78° C 99% 1017.1 hPa 0 mm - 29 W/m² -
1788609856 22.78° C 99% 1017.2 hPa 0 mm - 25 W/m² -
1788609550 22.78° C 99% 1016.9 hPa 0 mm - 22 W/m² -
1788609250 22.78° C 99% 1017.1 hPa 0 mm - 18 W/m² -
1788608945 22.78° C 99% 1017.1 hPa 0 mm - 14 W/m² -
1788608644 22.78° C 99% 1016.9 hPa 0 mm - 10 W/m² -
1788608344 22.78° C 99% 1016.9 hPa 0 mm - 8 W/m² -
1788608039 22.78° C 99% 1016.9 hPa 0 mm - 6 W/m² -
1788607734 22.78° C 99% 1016.9 hPa 0 mm - 4 W/m² -
1788607429 22.78° C 99% 1016.8 hPa 0 mm - 2 W/m² -
1788607125 22.78° C 99% 1016.6 hPa 0 mm - 1 W/m² -
1788606825 22.78° C 99% 1016.6 hPa 0 mm - 1 W/m² -
1788606524 22.78° C 99% 1016.4 hPa 0 mm - 0 W/m² -
1788606224 22.78° C 99% 1016.7 hPa 0 mm - 0 W/m² -
1788605919 22.78° C 99% 1016.5 hPa 0 mm - 0 W/m² -
1788605619 22.78° C 99% 1016.4 hPa 0 mm - 0 W/m² -
1788605312 22.78° C 99% 1016.5 hPa 0 mm - 0 W/m² -
1788605009 22.78° C 99% 1016.3 hPa 0 mm - 0 W/m² -
1788604708 22.78° C 99% 1016.3 hPa 0 mm - 0 W/m² -
1788604404 22.78° C 99% 1016.3 hPa 0 mm - 0 W/m² -
1788604100 22.78° C 99% 1016.5 hPa 0 mm - 0 W/m² -
1788603797 22.78° C 99% 1016.2 hPa 0 mm - 0 W/m² -

* Rain latest hour (hover to see other rain measurements)
** Current wind speed in m/s (hover to see current wind gust speed)